Hourly Data Report for July 05, 2022

KUGAARUK CLIMATE
NUNAVUT
Current Station Operator: ECCC - MSC

68°32'15.060" N
89°47'47.020" W
15.80 m
2303094
71407
NBB

Download Data

Hourly Data (July 2022)
Hourly Data Report for July 5, 2022
TIME
LST
Temp Definition
°C
Dew Point Definition
°C
Rel Hum Definition
%
Precip. Amount Definition
mm

Wind Dir Definition
10's deg

Wind Spd Definition
km/h
Visibility Definition
km
Stn Press Definition
kPa
Hmdx Definition


Wind Chill Definition


Weather Definition


00:00 3.5 0.4 80 0.0 3 11   101.20     LegendNANA
01:00 3.9 0.4 78 0.0 32 5   101.21     LegendNANA
02:00 4.2 0.7 78 0.0 2 7   101.21     LegendNANA
03:00 4.6 0.9 77 0.0 1 10   101.22     LegendNANA
04:00 5.6 0.8 71 0.0 1 10   101.23     LegendNANA
05:00 5.9 1.2 72 0.0 36 11   101.25     LegendNANA
06:00 5.7 1.3 73 0.0 23 9   101.26     LegendNANA
07:00 7.6 2.2 69 0.0 2 19   101.27     LegendNANA
08:00 7.8 1.8 66 0.0 2 23   101.26     LegendNANA
09:00 8.6 1.9 63 0.0 1 27   101.25     LegendNANA
10:00 8.7 1.0 59 0.0 1 26   101.25     LegendNANA
11:00 9.2 1.0 57 0.0 1 29   101.26     LegendNANA
12:00 9.8 1.3 56 0.0 2 27   101.26     LegendNANA
13:00 10.7 1.4 53 0.0 1 20   101.26     LegendNANA
14:00 10.8 1.9 54 0.0 2 21   101.26     LegendNANA
15:00 9.7 1.1 55 0.0 2 22   101.27     LegendNANA
16:00 9.2 0.9 56 0.0 2 22   101.31     LegendNANA
17:00 9.1 0.8 56 0.0 3 18   101.32     LegendNANA
18:00 8.2 1.0 60 0.0 2 19   101.33     LegendNANA
19:00 8.2 0.9 60 0.0 2 21   101.33     LegendNANA
20:00 5.8 0.5 69 0.0 1 16   101.31     LegendNANA
21:00 5.2 -0.5 66 0.0 8 6   101.33     LegendNANA
22:00 5.0 -0.7 67 0.0 36 12   101.33     LegendNANA
23:00 4.1 -1.0 70 0.0 7 5   101.36     LegendNANA

Notes on Data Quality.

Legend

  • E = Estimated
  • M = Missing
  • NA = Not Available*
  • [empty] = Indicates an unobserved value
Date modified: